Home > Weather > Vadodara > Past weeks

Flag for India Weather for the Past 2 Weeks in Vadodara, Gujarat, India

Now
61 °F

Clear.


Feels Like: 61 °F
Forecast: 55 / 87 °F
Wind: 2 mph from Northwest

Location: Ahmadabad Airport

Current Time: Feb 12, 2016 at 7:14:08 AM

Latest Report: Feb 12, 2016 at 6:00 AM


Visibility: 2 mi

Pressure: 29.89 "Hg

Humidity: 55%

Dew point: 45 °F

Location of VadodaraLocation

Historic Weather in Vadodara — Graph

°F

Vadodara Temperature Yesterday

Maximum temperature yesterday: 86 °F (at 3:00 PM)
Minimum temperature yesterday: 63 °F (at 5:00 AM)
Average temperature yesterday: 73 °F

High & Low Weather Summary for the Past Weeks

 TemperatureHumidityPressure
High93 °F (Jan 29, 2:30 PM)88% (Jan 28, 6:00 AM)30.09 "Hg (Jan 28, 6:00 AM)
Low52 °F (Feb 8, 5:30 AM)13% (Feb 8, 5:00 PM)29.77 "Hg (Feb 6, 4:00 PM)
Average72 °F47%29.95 "Hg
* Reported Jan 28 5:30 AM — Feb 12 6:00 AM, Vadodara, Weather by CustomWeather, © 2016

Note: Actual official high and low records may vary slightly from our data, if they occured in-between our weather recording intervals... More about our weather records

Advertising

Vadodara Weather History for the Previous 24 Hours

 ConditionsComfort  
Time TempWeatherWind HumidityBarometerVisibility
6:00 AM
Fri, Feb 12
61 °FClear.2 mph55%29.89 "Hg2 mi
5:30 AM63 °FClear.2 mph52%29.89 "Hg2 mi
5:00 AM63 °FClear.3 mph52%29.86 "Hg2 mi
4:30 AM64 °FClear.3 mph49%29.86 "Hg2 mi
2:30 AM66 °FHaze.2 mph49%29.89 "Hg2 mi
2:00 AM64 °FHaze.No wind68%29.89 "Hg2 mi
1:30 AM64 °FHaze.No wind73%29.89 "Hg2 mi
1:00 AM64 °FHaze.2 mph73%29.89 "Hg2 mi
12:30 AM66 °FHaze.No wind60%29.89 "Hg2 mi
12:00 AM68 °FClear.No wind56%29.89 "Hg2 mi
11:30 PM
Thu, Feb 11
68 °FClear.No wind60%29.89 "Hg2 mi
11:00 PM70 °FClear.3 mph53%29.92 "Hg2 mi
10:30 PM70 °FClear.No wind57%29.92 "Hg2 mi
10:00 PM73 °FClear.2 mph50%29.92 "Hg2 mi
9:30 PM73 °FClear.2 mph47%29.89 "Hg2 mi
9:00 PM73 °FClear.No wind47%29.89 "Hg2 mi
8:30 PM73 °FClear.2 mph47%29.89 "Hg2 mi
8:00 PM75 °FClear.No wind44%29.86 "Hg2 mi
7:30 PM75 °FClear.No wind44%29.86 "Hg2 mi
7:00 PM79 °FClear.2 mph39%29.83 "Hg2 mi
6:30 PM81 °FClear.3 mph37%29.83 "Hg2 mi
6:00 PM81 °FClear.7 mph37%29.83 "Hg3 mi
5:30 PM82 °FClear.8 mph35%29.83 "Hg4 mi
5:00 PM84 °FClear.8 mph33%29.83 "Hg4 mi
4:30 PM84 °FClear.6 mph33%29.83 "Hg4 mi
4:00 PM84 °FClear.8 mph35%29.83 "Hg4 mi
3:30 PM86 °FPassing clouds.7 mph33%29.83 "Hg4 mi
3:00 PM86 °FPassing clouds.10 mph33%29.83 "Hg4 mi
2:30 PM84 °FPassing clouds.5 mph37%29.83 "Hg4 mi
2:00 PM84 °FPassing clouds.6 mph37%29.86 "Hg4 mi
1:30 PM84 °FPassing clouds.5 mph43%29.86 "Hg4 mi
1:00 PM82 °FPassing clouds.7 mph45%29.89 "Hg4 mi
12:30 PM81 °FPassing clouds.7 mph48%29.89 "Hg4 mi
12:00 PM81 °FPassing clouds.6 mph48%29.92 "Hg4 mi
11:30 AM77 °FPassing clouds.5 mph61%29.95 "Hg3 mi
11:00 AM77 °FHaze.3 mph61%29.95 "Hg2 mi
10:30 AM73 °FHaze.3 mph69%29.95 "Hg2 mi
10:00 AM72 °FHaze.6 mph73%29.95 "Hg2 mi
9:30 AM70 °FHaze.6 mph78%29.95 "Hg2 mi
9:00 AM70 °FHaze.3 mph73%29.95 "Hg2 mi
8:30 AM66 °FHaze.3 mph78%29.92 "Hg2 mi
7:30 AM63 °FHaze.3 mph77%29.89 "Hg1 mi
7:00 AM63 °FHaze.3 mph77%29.89 "Hg1 mi
Weather by CustomWeather, © 2016

See weather overviewHow to use our weather pages